STARLINK-11471 [DTC] (62225 NORAD) Tracking and Keplerian Element Data

This shows tracking and keplerian element data for the satellite.

Feedback or suggestion? Click here.




ElementValue
Catalog62225
NameSTARLINK-11471 [DTC]
Epoch Orbit1049
Epoch Day35.05100852
Epoch Year2025
RAAN266.2088
Inclination53.1589
Eccentricity0.0001062
Argument of Perigee92.1676
Mean Anonmoly267.9463
Mean Motion15.69717895
Decay Rate1.171E-05
L11 62225U 24231H 25035.05100852 .00001171 00000+0 14521-4 0 9991
L22 62225 53.1589 266.2088 0001062 92.1676 267.9463 15.69717895 10491



Live tracking and technical data element details for STARLINK-11471 [DTC] (NORAD 62225). STARLINK-11471 [DTC] can be tracked NOW for your location showing map with azimuth and elevation plus other details from your city location.







IsCatalogInMostPopularTable: catalog: 62225, numindb: 19
Update: records affected: 1



GetName: 62225 STARLINK-11471 [DTC]

Hit Count: updated at: Sun, 18 May 2025 23:29:23 GMT